Tracking 35035 objects as of 16-Aug-2026
HD Live streaming from Space Station
objects crossing your sky now

FENGYUN 1C DEB

Track FENGYUN 1C DEB now!
10-day predictions


NORAD ID: 37065
Int'l Code: 1999-025EEZ
Launch date: May 10, 1999
Source: People's Republic of China (PRC)
Launch site: Taiyaun Space Center, China (TSC)

Note: This is SATELLITE DEBRIS
Your satellite tracking list
Your tracking list is empty




NASA's NSSDC Master Catalog

Two Line Element Set (TLE):
1 37065U 99025EEZ 26223.96961922  .00001887  00000-0  19671-2 0  9995
2 37065 103.2840 129.1671 0294229  75.7064 287.6542 13.60098277254946
Source of the keplerian elements: AFSPC